Location: Aclettapass
(46.7314°N, 8.7921°E)
Time: 00:12:18
(UTC+00:00)

Daily predictions for brighter satellites

Satellite Brightness Start Highest point End
(mag) Time Altitude Azimuth Time Altitude Azimuth Time Altitude Azimuth
STARLINK-1209 4.2 00:00:16 10° NW 00:03:17 40° NNE 00:06:18 10° E
ATLAS CENTAUR R/B 3.8 00:03:03 10° NNW 00:04:58 21° NE 00:08:00 10° E
Nadezhda 2 Rocket 4.5 00:04:33 39° S 00:06:54 75° E 00:13:02 10° NNE
GEOS 3 Rocket 3.5 00:07:39 32° SE 00:10:09 86° SW 00:15:29 10° NW
Cosmos 1726 3.5 00:08:02 10° NNW 00:10:54 27° W 00:10:54 27° W
STARLINK-1189 4.5 00:08:36 10° NW 00:11:32 36° NNE 00:14:28 10° E
STARLINK-1188 4.4 00:09:29 10° NW 00:12:25 36° NNE 00:15:21 10° E
Cosmos 2058 Rocket 3.3 00:08:08 10° N 00:12:32 63° E 00:13:46 43° SE
STARLINK-1235 4.1 00:10:10 10° NW 00:13:08 41° NNE 00:16:06 10° E
STARLINK-1187 4.3 00:10:36 10° NW 00:13:32 39° NNE 00:16:29 10° E
Meteor 1-29 2.9 00:10:15 10° NNE 00:13:32 80° NE 00:13:32 80° NE
COSMOS 2455 2.8 00:11:39 42° SSW 00:13:46 73° ESE 00:19:47 10° NE
STARLINK-1191 4.4 00:11:58 10° NW 00:14:53 37° NNE 00:17:48 10° E
Cosmos 2228 2.9 00:10:49 10° NNW 00:15:03 64° W 00:15:32 58° SW
STARLINK-1221 4.4 00:12:49 10° NW 00:15:46 37° NNE 00:18:41 10° E
SJ 16-02 4.1 00:13:06 10° NNE 00:15:57 16° NE 00:18:47 10° E
STARLINK-1222 4.4 00:13:43 10° NW 00:16:40 38° NNE 00:19:36 10° E
STARLINK-1214 4.3 00:14:38 10° NW 00:17:35 38° NNE 00:20:30 10° E
SL-14 R/B 3.5 00:18:39 50° SE 00:19:09 54° E 00:22:56 10° NNE
Cosmos 1953 4.0 00:16:21 10° NW 00:19:26 21° W 00:19:26 21° W
IRAS Rocket 4.2 00:17:53 35° SSE 00:20:23 87° ENE 00:25:59 10° NNW
Cosmos 1340 Rocket 4.1 00:17:41 10° NNW 00:21:07 28° W 00:21:07 28° W
Okean 1-7 Rocket 3.6 00:22:03 52° SSE 00:23:05 75° E 00:27:34 10° NNE
Cosmos 1174 3.3 00:23:33 73° ENE 00:23:33 73° ENE 00:26:55 10° NE
Cosmos 1300 3.0 00:20:31 10° N 00:24:18 58° ENE 00:25:04 47° SE
Cosmos 921 Rocket 3.8 00:23:34 35° SE 00:24:26 39° ESE 00:28:27 10° NNE
BREEZE M DEB (TANK) 3.2 00:26:49 36° ENE 00:26:49 36° ENE 00:29:04 10° E
COSMOS 2487 3.3 00:24:36 10° NNW 00:27:18 38° WNW 00:27:18 38° WNW
Cosmos 2219 4.3 00:27:31 10° NNW 00:32:55 42° NE 00:38:14 10° SE
Cosmos 1626 1.9 00:34:31 70° S 00:34:55 88° E 00:38:39 10° N
STARLINK-60 3.2 00:36:27 62° E 00:36:27 62° E 00:39:13 10° ENE
Cosmos 1656 Rocket 4.4 00:33:51 25° WSW 00:36:43 45° NW 00:42:05 10° NNE
Cosmos 1606 Rocket 4.3 00:34:22 10° NNW 00:38:20 35° W 00:38:48 34° WSW
FALCON 9 R/B 3.6 00:38:25 31° SSW 00:41:04 40° SSE 00:58:41 10° ESE
Nadezhda 1 Rocket 4.1 00:35:42 10° N 00:41:51 70° E 00:45:52 23° SSE
MOZ.5/SAFIR/RUBIN 5/SL-8 3.8 00:44:16 32° SSE 00:46:24 77° ENE 00:51:03 10° N
UNK 4.2 00:44:00 23° SE 00:46:42 58° ENE 00:51:14 10° N
Cosmos 220 Rocket 4.5 00:46:16 37° SSE 00:47:35 52° ESE 00:51:53 10° NNE
Cosmos 2297 Rocket 3.3 00:43:10 10° NNW 00:48:35 44° NE 00:53:59 10° SE
SL-4 R/B 2.3 00:49:12 37° SW 00:51:04 82° SSE 00:55:49 10° ENE
Cosmos 1812 Rocket 4.4 00:47:22 10° N 00:51:44 48° ENE 00:54:30 20° SE
CZ-4B R/B 4.5 00:47:31 10° NNE 00:52:23 40° E 00:55:16 22° SSE
Cosmos 1437 2.4 00:52:48 83° E 00:52:48 83° E 00:55:47 10° NNE
NOSS 5 (C) 4.5 00:49:54 10° NW 00:53:07 63° SW 00:53:31 58° SSW
Cosmos 1674 4.4 00:53:21 20° W 00:53:59 21° WNW 00:56:53 10° NNW
SL-19 R/B 4.3 00:52:07 10° N 00:57:27 65° WNW 01:00:03 32° SW
ATLAS CENTAUR R/B 1.7 00:56:56 35° WSW 00:58:33 60° NW 01:02:39 10° NNE
Cosmos 1777 Rocket 4.3 00:55:04 10° NNW 01:00:06 50° WSW 01:01:54 35° SSW
SL-16 R/B 2.5 00:56:01 20° SSE 01:00:27 87° ENE 01:06:40 10° NNW
Timation 2 Rocket 3.9 00:54:15 10° NNW 01:00:34 68° WSW 01:04:30 23° S
NOSS 3-4 (A) 4.1 00:57:31 19° WSW 01:01:38 51° NW 01:07:55 10° NE
NOSS 3-4 (C) 4.0 00:57:37 20° WSW 01:01:44 51° NW 01:08:02 10° NE
BREEZE-M R/B 3.1 01:01:08 40° SSW 01:02:05 49° SSE 01:05:08 10° ENE
FALCON 9 DEB 3.7 01:02:08 41° SE 01:02:08 41° SE 01:05:24 10° ENE
OE (NEXTSAT) 4.5 01:03:40 53° SSE 01:03:40 53° SSE 01:07:02 10° E
Cosmos 1602 Rocket 3.7 01:01:58 34° SSE 01:03:44 65° E 01:08:02 10° NNE
STARLINK-29 2.8 01:04:34 67° SSE 01:04:41 68° SE 01:07:51 10° ENE
Cosmos 1455 3.5 01:03:11 10° N 01:06:41 36° ENE 01:09:23 15° SE
ATLAS 3B R/B 2.9 01:01:14 10° NW 01:07:49 52° WSW 01:12:43 19° S
BREEZE-M DEB (TANK) 4.1 01:09:30 15° ESE 01:09:30 15° ESE 01:10:08 10° E
STARLINK-1201 4.4 01:05:05 10° WNW 01:09:10 52° NNE 01:13:13 10° E
CENTAUR R/B 4.0 01:04:28 10° NW 01:11:28 31° WSW 01:14:47 24° SSW
GP-B 4.1 01:08:45 10° NNE 01:13:00 43° E 01:16:10 17° SSE
BREEZE-M DEB (TANK) 1.4 01:12:39 45° WNW 01:13:12 64° NNW 01:15:29 10° ENE
Meteor 2-1 Rocket 4.1 01:08:33 10° N 01:14:06 86° E 01:18:04 20° SSE
STARLINK-1206 4.3 01:10:04 10° WNW 01:14:09 55° NNE 01:18:14 10° E
Cosmos 1867 4.5 01:11:26 10° NW 01:15:59 28° WSW 01:16:44 27° SW
Cosmos 1745 Rocket 4.0 01:12:45 28° SSW 01:16:10 74° W 01:22:20 10° N
Cosmos-2242 4.3 01:12:18 10° N 01:16:17 37° ENE 01:20:14 10° SE
STARLINK-1373 4.5 01:17:22 26° SSE 01:17:43 26° SE 01:20:45 10° ENE
STARLINK-1205 4.2 01:15:03 10° WNW 01:19:08 58° NNE 01:23:14 10° ESE
STARLINK-1390 4.4 01:19:27 27° SSE 01:19:52 27° SE 01:22:56 10° ENE
RESURS DK-1 2.7 01:19:17 32° WSW 01:20:56 56° WNW 01:25:01 10° NNE
STARLINK-1218 4.1 01:20:01 10° WNW 01:24:08 61° NNE 01:28:14 10° ESE
Cosmos 2227 Rocket 2.5 01:18:37 10° NNW 01:24:19 69° ENE 01:29:57 10° SE
Cosmos 1356 Rocket 3.7 01:20:19 10° NNW 01:24:20 50° W 01:25:49 33° SSW
Meteor 1-24 Rocket 4.5 01:22:03 23° WSW 01:24:36 37° WNW 01:29:35 10° N
Cosmos 1763 Rocket 4.3 01:23:45 18° SSE 01:27:08 42° ESE 01:31:55 10° NE
CZ-2D R/B 2.1 01:21:57 10° NNE 01:27:14 80° WNW 01:30:15 26° SSW
Cosmos 1697 Rocket 4.0 01:23:11 13° SSE 01:27:23 32° ESE 01:32:20 10° NE
STARLINK-1254 4.0 01:25:00 10° WNW 01:29:08 65° NNE 01:33:15 10° ESE
Cosmos 1703 4.3 01:26:47 18° SSE 01:29:21 41° E 01:33:06 10° NNE
ADEOS II 2.9 01:24:51 10° NNE 01:29:54 45° E 01:34:07 14° SSE
ATLAS 2AS CENTAUR R/B 3.9 01:23:17 10° WSW 01:30:48 44° NW 01:38:16 10° NE
CZ-4C R/B 4.1 01:30:46 30° SW 01:32:06 39° W 01:36:11 10° NNW
STARLINK-1231 3.9 01:30:00 10° WNW 01:34:08 68° NNE 01:38:16 10° ESE
STARLINK-1228 3.3 01:32:36 10° WNW 01:35:48 43° SW 01:39:00 10° SE
Resurs 1-4 Rocket 2.2 01:31:44 10° N 01:36:58 65° WNW 01:40:11 24° SSW
STARLINK-1234 3.1 01:34:02 10° WNW 01:37:01 42° SW 01:37:02 42° SW
STARLINK-1212 2.8 01:35:21 10° WNW 01:38:24 56° SW 01:41:27 10° SE
STARLINK-1105 2.8 01:35:49 10° WNW 01:38:52 55° SW 01:41:53 10° SE
STARLINK-1232 3.8 01:34:58 10° WNW 01:39:07 72° NNE 01:43:16 10° ESE
STARLINK-1209 3.6 01:36:18 10° WNW 01:38:42 35° WSW 01:38:42 35° WSW
USA 81 4.0 01:36:19 23° SSW 01:39:37 74° W 01:44:56 10° N
STARLINK-1247 2.9 01:36:44 10° WNW 01:39:48 55° SW 01:42:51 10° SE
STARLINK-1227 2.8 01:37:12 10° WNW 01:40:14 54° SW 01:43:15 10° SE
STARLINK-1226 2.9 01:38:03 10° WNW 01:41:06 53° SW 01:44:08 10° SE
STARLINK-52 3.1 01:39:41 30° WSW 01:41:06 71° NNW 01:44:19 10° ENE
ARIANE 5 R/B 3.8 01:37:19 10° NNE 01:41:59 35° E 01:46:33 10° SSE
STARLINK-1215 2.9 01:38:59 10° WNW 01:42:03 52° SW 01:45:05 10° SE
Cosmos 1758 Rocket 3.6 01:39:23 22° S 01:42:06 79° E 01:46:29 10° NNE
STARLINK-1217 2.9 01:40:46 10° WNW 01:43:48 50° SW 01:46:50 10° SE
STARLINK-1208 3.7 01:39:56 10° WNW 01:44:05 77° NNE 01:48:14 10° ESE
NPP 3.8 01:39:03 10° N 01:44:25 66° WNW 01:47:57 22° SSW
STARLINK-1229 3.0 01:41:41 10° WNW 01:44:44 49° SW 01:47:45 10° SE
H-2A R/B 4.1 01:41:04 10° SE 01:44:48 29° ENE 01:48:38 10° N
STARLINK-1270 3.0 01:42:33 10° WNW 01:45:35 48° SW 01:48:36 10° SE
STARLINK-1189 3.0 01:44:24 10° WNW 01:47:25 47° SW 01:50:26 10° SE
STARLINK-1188 3.0 01:45:17 10° WNW 01:48:18 46° SW 01:51:19 10° SE
STARLINK-1235 3.4 01:46:03 10° WNW 01:48:55 35° SW 01:51:47 10° SSE
STARLINK-1271 3.7 01:44:56 10° WNW 01:49:05 82° NNE 01:53:14 10° ESE
STARLINK-1187 3.2 01:46:25 10° WNW 01:49:22 39° SW 01:52:17 10° SSE
Cosmos 1898 Rocket 3.5 01:44:08 10° NNW 01:49:31 89° WSW 01:54:50 10° SSE
Meteor 1-21 Rocket 4.2 01:46:49 21° SSW 01:50:39 72° WNW 01:56:21 10° N
STARLINK-1191 3.1 01:47:47 10° WNW 01:50:45 43° SW 01:53:42 10° SE
Starlink 7 placeholder 4.4 01:49:43 13° NW 01:50:49 18° NNW 01:52:19 10° NE
Lacrosse 4 Rocket 3.1 01:47:08 10° NNW 01:51:12 36° NE 01:55:09 10° ESE
STARLINK-1221 3.1 01:48:39 10° WNW 01:51:37 43° SW 01:54:35 10° SE
Cosmos 1656 3.7 01:48:20 21° SSW 01:52:18 86° ESE 01:57:58 10° NNE
STARLINK-1222 3.1 01:49:33 10° WNW 01:52:30 42° SW 01:55:28 10° SE
STARLINK-1214 3.2 01:50:28 10° WNW 01:53:25 41° SW 01:56:21 10° SE
STARLINK-1154 3.6 01:49:55 10° WNW 01:54:05 87° NE 01:58:13 10° ESE
CZ-4C R/B 2.8 01:50:43 17° S 01:54:17 43° ESE 01:59:45 10° NE
SJ 16-02 1.3 01:50:36 10° NNW 01:55:00 66° WSW 01:59:17 11° S
Cosmos 2285 Rocket 4.3 01:48:35 10° NNW 01:55:00 73° ENE 02:01:20 10° SSE
Cosmos 2084 3.9 01:52:18 21° WSW 01:55:11 60° NW 01:59:38 10° NE
IDEFIX/ARIANE 42P 4.4 01:50:52 10° NE 01:55:15 26° E 01:59:37 10° SSE
Cosmos 468 Rocket 3.9 01:52:22 20° SSW 01:55:59 87° ESE 02:01:09 10° NNE
Cosmos 1953 Rocket 3.9 01:54:38 14° S 01:58:25 66° E 02:02:51 10° NNE
STARLINK-1197 3.5 01:54:53 10° WNW 01:59:03 88° SSW 02:03:12 10° ESE
Cosmos 1937 Rocket 3.6 01:54:30 10° NNW 01:59:47 83° ENE 02:05:03 10° SSE
COSMOS 2455 4.3 01:55:10 10° W 02:00:16 28° NW 02:05:25 10° NNE
Cosmos 2369 4.2 01:55:55 14° S 02:00:38 54° ESE 02:06:08 10° NE
Meteor 2-10 Rocket 3.7 01:56:39 10° NNW 02:01:51 52° W 02:06:00 15° SSW
STARLINK-1198 3.5 01:59:50 10° WNW 02:04:00 83° SSW 02:08:08 10° SE
Cosmos 1709 Rocket 4.2 02:01:48 18° SSW 02:06:22 56° WNW 02:12:24 10° N
STARLINK-1199 3.5 02:04:51 10° WNW 02:09:01 77° SSW 02:13:09 10° SE
STARLINK-1210 3.5 02:09:49 10° WNW 02:13:58 72° SSW 02:18:05 10° SE
STARLINK-1320 2.8 02:14:52 20° WSW 02:16:53 86° SSE 02:20:01 10° ENE
Cosmos 2219 3.9 02:11:53 10° NW 02:16:58 34° WSW 02:21:58 10° SSW
STARLINK-1322 2.8 02:15:11 20° WSW 02:17:14 86° SSE 02:20:22 10° ENE
STARLINK-1324 2.8 02:15:32 19° WSW 02:17:35 87° SE 02:20:43 10° ENE
STARLINK-1294 2.8 02:15:47 19° WSW 02:17:52 87° SSE 02:21:01 10° ENE
STARLINK-1261 2.8 02:16:09 19° WSW 02:18:15 88° SE 02:21:22 10° ENE
STARLINK-1325 2.8 02:16:30 19° WSW 02:18:36 88° SSE 02:21:44 10° ENE
STARLINK-1333 2.8 02:16:48 19° WSW 02:18:55 89° SE 02:22:02 10° ENE
STARLINK-1219 3.5 02:14:49 10° WNW 02:18:56 67° SW 02:23:02 10° SE
STARLINK-1334 2.8 02:17:07 19° WSW 02:19:14 89° SSE 02:22:23 10° ENE
Cosmos 1980 Rocket 3.1 02:14:17 10° S 02:19:34 44° ESE 02:24:53 10° NE
STARLINK-1326 2.8 02:17:28 19° WSW 02:19:36 90° E 02:22:44 10° ENE
STARLINK-1323 2.8 02:17:47 18° WSW 02:19:56 90° NNW 02:23:04 10° ENE
STARLINK-1338 3.1 02:17:39 18° SW 02:20:09 82° SSE 02:23:39 10° ENE
STARLINK-1349 2.8 02:18:06 18° WSW 02:20:15 89° WNW 02:23:24 10° ENE
Cosmos 858 Rocket 4.5 02:15:11 10° NNW 02:20:26 67° WSW 02:25:39 10° S
STARLINK-1336 2.8 02:18:28 18° WSW 02:20:38 89° NNW 02:23:46 10° ENE
STARLINK-1331 2.8 02:18:45 18° WSW 02:20:56 88° NNW 02:24:04 10° ENE
STARLINK-1344 2.8 02:19:05 18° WSW 02:21:17 88° NW 02:24:25 10° ENE
STARLINK-1343 2.8 02:19:25 18° WSW 02:21:37 87° NNW 02:24:46 10° ENE
STARLINK-1346 2.8 02:19:43 17° WSW 02:21:58 87° NNW 02:25:09 10° ENE
STARLINK-1328 2.8 02:20:05 17° WSW 02:22:19 86° NW 02:25:27 10° ENE
Cosmos 1328 4.1 02:19:19 16° SSW 02:22:19 51° WNW 02:26:14 10° N
CRYOSAT 2 4.5 02:17:42 10° N 02:22:35 64° W 02:27:17 11° SSW
STARLINK-1354 2.8 02:20:22 17° WSW 02:22:38 86° NNW 02:25:46 10° ENE
STARLINK-1347 2.8 02:20:44 17° WSW 02:23:00 85° NNW 02:26:07 10° ENE
STARLINK-1357 2.8 02:21:02 17° WSW 02:23:18 85° NNW 02:26:25 10° ENE
STARLINK-1335 2.8 02:21:22 17° WSW 02:23:39 84° NNW 02:26:47 10° ENE
STARLINK-1211 3.6 02:19:47 10° WNW 02:23:54 62° SW 02:27:59 10° SE
STARLINK-1327 2.8 02:21:40 17° WSW 02:23:59 84° NNW 02:27:06 10° ENE
STARLINK-1371 3.1 02:21:31 16° WSW 02:24:11 88° SE 02:27:42 10° ENE
STARLINK-1340 2.8 02:22:01 17° WSW 02:24:20 84° NNW 02:27:28 10° ENE
ERS-2 2.1 02:20:42 10° SSE 02:24:21 85° WSW 02:28:03 10° NNW
STARLINK-1356 2.8 02:22:21 16° WSW 02:24:40 83° NNW 02:27:48 10° ENE
STARLINK-1345 2.8 02:22:41 16° WSW 02:25:01 83° NNW 02:28:09 10° ENE
STARLINK-1355 2.9 02:22:59 16° WSW 02:25:21 82° NNW 02:28:29 10° ENE
STARLINK-1321 2.9 02:23:18 16° WSW 02:25:40 82° NNW 02:28:48 10° ENE
STARLINK-1358 2.9 02:23:39 16° WSW 02:26:02 81° NNW 02:29:10 10° ENE
STARLINK-1341 3.1 02:23:29 16° WSW 02:26:14 90° NW 02:29:45 10° ENE
STARLINK-1332 2.9 02:23:57 16° WSW 02:26:21 81° NNW 02:29:28 10° ENE
STARLINK-1348 2.9 02:24:18 16° WSW 02:26:42 80° NNW 02:29:50 10° ENE
STARLINK-1330 2.9 02:24:36 16° WSW 02:27:01 80° NNW 02:30:09 10° ENE
STARLINK-1363 2.9 02:24:56 15° WSW 02:27:22 79° NNW 02:30:30 10° ENE
STARLINK-1337 2.9 02:25:15 15° WSW 02:27:42 79° NNW 02:30:49 10° ENE
STARLINK-1342 2.9 02:25:35 15° WSW 02:28:02 79° NNW 02:31:10 10° ENE
IRS-1C 4.2 02:22:50 10° N 02:28:10 71° WNW 02:33:25 10° SSW
STARLINK-1374 3.1 02:25:26 15° WSW 02:28:17 87° NNW 02:31:48 10° ENE
STARLINK-1364 2.9 02:25:55 15° WSW 02:28:23 78° NNW 02:31:31 10° ENE
STARLINK-1376 2.9 02:26:15 15° WSW 02:28:44 78° NNW 02:31:52 10° ENE
STARLINK-1245 3.6 02:24:48 10° WNW 02:28:53 57° SW 02:32:56 10° SE
STARLINK-1360 2.9 02:26:30 15° WSW 02:29:00 77° NNW 02:32:08 10° ENE
STARLINK-1361 2.9 02:26:56 15° WSW 02:29:27 77° NNW 02:32:34 10° ENE
STARLINK-1367 2.9 02:27:10 15° WSW 02:29:43 77° NNW 02:32:53 10° ENE
STARLINK-1366 2.9 02:27:33 14° WSW 02:30:05 76° NNW 02:33:13 10° ENE
STARLINK-1339 3.2 02:27:27 14° WSW 02:30:22 85° NNW 02:33:53 10° ENE
SL-4 R/B 3.2 02:26:26 10° W 02:31:07 49° N 02:35:36 10° ENE
STARLINK-1138 4.5 02:27:02 10° WNW 02:31:07 54° NNE 02:35:11 10° E
STARLINK-1377 3.2 02:29:28 14° WSW 02:32:27 82° NNW 02:35:59 10° ENE
Cosmos 2297 Rocket 2.9 02:27:32 10° NW 02:32:29 32° WSW 02:37:25 10° SSW
STARLINK-1233 3.7 02:29:47 10° WNW 02:33:49 53° SW 02:37:51 10° SE
STARLINK-1203 4.4 02:29:51 10° WNW 02:34:00 57° NNE 02:38:09 10° ESE
STARLINK-1353 3.2 02:31:17 13° WSW 02:34:19 80° NNW 02:37:49 10° ENE
STARLINK-1143 4.4 02:32:01 10° WNW 02:36:07 57° NNE 02:40:12 10° ESE
STARLINK-1375 3.2 02:33:04 12° WSW 02:36:11 78° NNW 02:39:41 10° ENE
Cosmos 2082 3.8 02:30:50 10° NNW 02:36:24 58° WSW 02:41:53 10° S
Cosmos 540 Rocket 3.5 02:32:32 10° SSW 02:37:41 85° ESE 02:42:51 10° NNE
ATLAS CENTAUR R/B 3.9 02:36:08 10° WNW 02:38:13 13° NNW 02:40:16 10° N
STARLINK-1350 3.3 02:35:22 12° WSW 02:38:35 75° NNW 02:42:04 10° ENE
STARLINK-1204 3.8 02:34:47 10° WNW 02:38:48 49° SW 02:42:48 10° SE
FALCON 9 DEB 4.1 02:35:51 10° W 02:39:10 43° NNW 02:42:31 10° NE
STARLINK-1352 3.3 02:37:40 11° WSW 02:41:01 72° NNW 02:44:32 10° ENE
STARLINK-1241 4.3 02:36:59 10° WNW 02:41:07 60° NNE 02:45:12 10° ESE
OE (NEXTSAT) 4.3 02:37:42 10° W 02:41:11 81° S 02:44:40 10° E
Landsat 5 3.8 02:36:45 10° SSE 02:41:14 80° ENE 02:45:46 10° NNW
Cosmos 1455 3.9 02:39:33 10° NW 02:42:00 17° W 02:44:16 11° SW
Cosmos 2278 3.8 02:36:30 10° SSW 02:42:08 79° ESE 02:47:49 10° NNE
CZ-2D R/B 3.5 02:38:26 10° NNE 02:42:33 90° E 02:46:46 10° SSW
STARLINK-1368 3.4 02:39:45 10° WSW 02:43:11 70° NNW 02:46:43 10° ENE
STARLINK-1238 3.9 02:39:46 10° WNW 02:43:44 45° SW 02:47:41 10° SE
USA 234 4.0 02:37:45 10° ENE 02:43:57 44° SE 02:50:08 10° SSW
Meteor 1-28 Rocket 3.4 02:40:32 10° S 02:44:14 53° W 02:47:57 10° NNW
Meteor 1-11 4.3 02:38:40 10° SSW 02:44:16 67° WNW 02:49:52 10° N
SL-16 R/B 4.1 02:41:06 10° SW 02:44:51 17° W 02:48:39 10° NW
STARLINK-1369 3.4 02:41:38 10° WSW 02:45:06 68° NNW 02:48:36 10° ENE
STARLINK-1239 4.2 02:41:58 10° WNW 02:46:06 63° NNE 02:50:12 10° ESE
ATLAS CENTAUR R/B 3.3 02:43:58 10° WNW 02:47:17 30° SW 02:54:13 10° SSE
STARLINK-1372 3.4 02:44:05 10° WSW 02:47:35 66° NNW 02:51:07 10° ENE
Cosmos 2074 Rocket 4.1 02:41:24 10° SSW 02:47:39 67° W 02:53:56 10° N
Cosmos 2263 Rocket 3.4 02:42:57 10° NNW 02:48:25 48° ENE 02:53:47 10° SE
STARLINK-1201 4.0 02:44:47 10° WNW 02:48:42 41° SW 02:52:36 10° SSE
STARLINK-1378 3.5 02:46:18 10° WSW 02:49:49 64° NNW 02:53:20 10° ENE
Cosmos 841 Rocket 3.6 02:44:45 10° SSW 02:50:00 72° WNW 02:55:15 10° NNE
Cosmos 372 Rocket 3.9 02:44:57 10° NNW 02:50:06 82° WSW 02:55:15 10° SSE
STARLINK-1329 3.5 02:46:50 10° WSW 02:50:20 63° NNW 02:53:51 10° ENE
Cosmos 2322 Rocket 4.5 02:46:29 10° SE 02:50:29 20° E 02:54:28 10° NE
STARLINK-1365 3.6 02:47:35 10° WSW 02:51:04 61° NNW 02:54:34 10° ENE
STARLINK-1240 4.1 02:46:57 10° WNW 02:51:06 67° NNE 02:55:13 10° ESE
STARLINK-1379 3.5 02:48:32 10° WSW 02:52:02 62° NNW 02:55:33 10° ENE
STARLINK-1362 3.6 02:49:07 10° WSW 02:52:38 61° NNW 02:56:10 10° ENE
Cosmos-2242 4.4 02:50:23 10° NW 02:53:36 21° W 02:56:47 10° SW
Cosmos 1892 4.1 02:50:03 10° SSE 02:53:39 40° E 02:57:15 10° NNE
STARLINK-1206 4.1 02:49:48 10° WNW 02:53:39 38° SW 02:57:30 10° SSE
COBE Rocket 4.2 02:49:33 10° S 02:54:18 48° W 02:59:13 10° NNW
Cosmos 1869 3.4 02:50:33 10° N 02:54:28 77° E 02:58:20 10° SSE
STARLINK-1373 3.6 02:51:25 10° WSW 02:54:56 60° NNW 02:58:28 10° ENE
Cosmos 1400 Rocket 3.4 02:51:07 10° NNW 02:55:01 42° W 02:58:54 10° SSW
Cosmos 2221 2.5 02:51:31 10° N 02:55:52 89° WSW 03:00:12 10° S
STARLINK-1216 4.0 02:51:56 10° WNW 02:56:05 71° NNE 03:00:13 10° ESE
STARLINK-1390 3.6 02:53:30 10° WSW 02:57:00 58° NNW 03:00:30 10° ENE
STARLINK-1205 4.2 02:54:49 10° WNW 02:58:36 35° SW 03:02:24 10° SSE
Cosmos 2184 Rocket 4.2 02:53:09 10° SSW 02:59:12 57° WNW 03:05:18 10° N
SL-08 R/B 4.2 02:55:47 10° SSW 02:59:53 29° W 03:03:57 10° NW
CZ-4C R/B 3.2 02:56:40 10° S 03:00:10 53° W 03:03:45 10° NNW
STARLINK-1237 3.9 02:56:55 10° WNW 03:01:05 75° NNE 03:05:13 10° ESE
STARLINK-1218 4.3 02:59:49 10° WNW 03:03:33 32° SW 03:07:15 10° SSE
STARLINK-1202 3.8 03:01:54 10° WNW 03:06:04 80° NNE 03:10:13 10° ESE
